EW7771 Weather Reports


Display with metric or nautical units.
time (UTC)temp
F
wind
direction
speed
MPH
gust
MPH
rain 1hr
in
rain 24hr
in
rain mn
in
humidity
%
barometer
mb
20260502163208 58 324 0.0 1.0 0.00 0.00 0.00 79 1015.4
20260502163147 57 324 0.0 1.0 0.00 0.00 0.00 81 1015.4
20260502162210 57 319 0.0 1.0 0.00 0.00 0.00 82 1015.4
20260502161706 57 243 0.0 0.0 0.00 0.00 0.00 82 1015.4
20260502161201 56 0 0.0 0.0 0.00 0.00 0.00 82 1015.3
20260502160702 56 56 0.0 0.0 0.00 0.00 0.00 83 1015.3
20260502160159 56 57 0.0 0.0 0.00 0.00 0.00 83 1015.3
20260502152154 54 300 0.0 0.0 0.00 0.00 0.00 91 1015.2
20260502151653 54 225 0.0 0.0 0.00 0.00 0.00 93 1015.2
20260502151154 53 225 0.0 0.0 0.00 0.00 0.00 94 1015.2
20260502150652 53 225 0.0 0.0 0.00 0.00 0.00 94 1015.1
20260502150151 53 225 0.0 0.0 0.00 0.00 0.00 95 1015.1
20260502140116 51 194 0.0 0.0 0.00 0.00 0.00 95 1014.9
20260502130510 51 184 0.0 0.0 0.00 0.00 0.00 95 1015.2
20260502123435 51 184 0.0 0.0 0.00 0.00 0.00 96 1015.4
20260502122929 51 184 0.0 0.0 0.00 0.00 0.00 95 1015.5
20260502122422 51 184 0.0 0.0 0.00 0.00 0.00 95 1015.5
20260502121916 51 184 0.0 0.0 0.00 0.00 0.00 95 1015.5
20260502121411 51 184 0.0 0.0 0.00 0.00 0.00 95 1015.3
20260502120904 50 184 0.0 0.0 0.00 0.00 0.00 95 1015.4
20260502120359 50 184 0.0 0.0 0.00 0.00 0.00 95 1015.4
20260502115852 50 184 0.0 0.0 0.00 0.00 0.00 95 1015.4
20260502115350 50 184 0.0 0.0 0.00 0.00 0.00 95 1015.5
20260502114841 50 184 0.0 0.0 0.00 0.00 0.00 95 1015.5
20260502114334 50 184 0.0 0.0 0.00 0.00 0.00 95 1015.7
20260502113828 50 184 0.0 0.0 0.00 0.00 0.00 95 1015.9
20260502113323 50 184 0.0 0.0 0.00 0.00 0.00 95 1016.0
20260502113048 50 184 0.0 0.0 0.00 0.00 0.00 95 1016.1
20260502112544 50 184 0.0 0.0 0.00 0.00 0.00 95 1016.1
20260502111804 50 184 0.0 0.0 0.00 0.00 0.00 95 1016.1
20260502111531 50 184 0.0 0.0 0.00 0.00 0.00 95 1016.0
20260502110753 50 184 0.0 0.0 0.00 0.00 0.00 95 1015.9
20260502110247 50 184 0.0 0.0 0.00 0.00 0.00 94 1015.7
20260502105741 50 184 0.0 0.0 0.00 0.00 0.00 94 1015.5
20260502105235 50 184 0.0 0.0 0.00 0.00 0.00 94 1015.2
20260502104729 50 184 0.0 0.0 0.00 0.00 0.00 94 1015.0
20260502104451 50 184 0.0 0.0 0.00 0.00 0.00 94 1014.9
20260502103715 50 184 0.0 0.0 0.00 0.00 0.00 94 1014.9
20260502103709 50 184 0.0 0.0 0.00 0.00 0.00 94 1014.9
20260502102704 50 184 0.0 0.0 0.00 0.00 0.00 94 1014.9
20260502102158 50 184 0.0 0.0 0.00 0.00 0.00 94 1015.0
20260502101652 50 184 0.0 0.0 0.00 0.00 0.00 94 1015.0
20260502101148 50 184 0.0 0.0 0.00 0.00 0.00 93 1015.0
20260502100640 50 184 0.0 0.0 0.00 0.00 0.00 93 1015.0
20260502100134 50 184 0.0 0.0 0.00 0.00 0.00 93 1015.0
20260502091050 51 184 0.0 0.0 0.00 0.00 0.00 92 1015.2
20260502090550 52 184 0.0 0.0 0.00 0.00 0.00 93 1015.2
20260502070959 55 184 0.0 0.0 0.00 0.00 0.00 85 1015.2
20260502070454 55 184 0.0 0.0 0.00 0.00 0.00 85 1015.0
20260502065948 56 184 0.0 0.0 0.00 0.00 0.00 84 1015.4
20260502065442 56 184 0.0 0.0 0.00 0.00 0.00 84 1015.6
20260502064935 56 184 0.0 0.0 0.00 0.00 0.00 84 1015.6
20260502064429 56 184 0.0 0.0 0.00 0.00 0.00 84 1015.6
20260502064418 56 184 0.0 0.0 0.00 0.00 0.00 84 1015.5
20260502063635 56 184 0.0 0.0 0.00 0.00 0.00 84 1015.3
20260502062912 56 184 0.0 0.0 0.00 0.00 0.00 83 1015.2
20260502062405 56 184 0.0 0.0 0.00 0.00 0.00 83 1015.1
20260502061859 56 184 0.0 0.0 0.00 0.00 0.00 83 1015.2
20260502061354 56 184 0.0 0.0 0.00 0.00 0.00 82 1015.1
20260502060848 57 184 0.0 0.0 0.00 0.00 0.00 81 1015.1
20260502060839 57 184 0.0 0.0 0.00 0.00 0.00 81 1015.0
20260502055834 57 184 0.0 0.0 0.00 0.00 0.00 80 1015.0
20260502055825 57 184 0.0 0.0 0.00 0.00 0.00 80 1015.0
20260502054824 58 184 0.0 0.0 0.00 0.00 0.00 79 1014.9
20260502054317 58 184 0.0 0.0 0.00 0.00 0.00 78 1014.8
20260502053811 58 184 0.0 0.0 0.00 0.00 0.00 77 1014.8
20260502053306 58 184 0.0 0.0 0.00 0.00 0.00 77 1014.7
20260502053238 59 184 0.0 0.0 0.00 0.00 0.00 77 1014.7
20260502052254 59 184 0.0 0.0 0.00 0.00 0.00 76 1014.8
20260502051748 59 184 0.0 0.0 0.00 0.00 0.00 76 1014.6
20260502051242 60 184 0.0 0.0 0.00 0.00 0.00 76 1014.6
20260502050736 60 184 0.0 0.0 0.00 0.00 0.00 75 1014.7
20260502050459 60 184 0.0 0.0 0.00 0.00 0.00 74 1014.6
20260502045954 60 184 0.0 0.0 0.00 0.00 0.00 73 1014.5
20260502045218 60 183 0.0 0.0 0.00 0.00 0.00 73 1014.4
20260502044712 61 104 0.0 0.0 0.00 0.00 0.00 73 1014.4
20260502044205 61 213 0.0 0.0 0.00 0.00 0.00 73 1014.4
20260502043659 61 186 0.0 0.0 0.00 0.00 0.00 72 1014.4
20260502043154 61 137 0.0 0.0 0.00 0.00 0.00 71 1014.3
20260502042647 62 196 0.0 0.0 0.00 0.00 0.00 71 1014.1
20260502042141 62 202 0.0 0.0 0.00 0.00 0.00 71 1014.0
20260502041635 63 202 0.0 0.0 0.00 0.00 0.00 68 1013.8
20260502041132 63 202 0.0 0.0 0.00 0.00 0.00 68 1013.8
20260502040632 63 202 0.0 0.0 0.00 0.00 0.00 69 1013.8
20260502040132 64 202 0.0 1.0 0.00 0.00 0.00 65 1013.8
20260502035627 64 200 0.0 1.0 0.00 0.00 0.00 65 1013.8
20260502035127 63 171 0.0 0.0 0.00 0.00 0.00 65 1013.7
20260502034628 64 213 0.0 0.0 0.00 0.00 0.00 65 1013.6
20260502034130 64 145 0.0 0.0 0.00 0.00 0.00 70 1013.5
20260502033628 64 168 0.0 0.0 0.00 0.00 0.00 70 1013.3
20260502033351 64 171 0.0 0.0 0.00 0.00 0.00 68 1013.3
20260502032859 64 210 0.0 0.0 0.00 0.00 0.00 65 1013.3
20260502032129 65 214 0.0 0.0 0.00 0.00 0.00 66 1013.3
20260502031628 65 152 0.0 0.0 0.00 0.00 0.00 65 1013.3
20260502031129 65 173 0.0 0.0 0.00 0.00 0.00 63 1013.1
20260502030629 65 123 0.0 0.0 0.00 0.00 0.00 64 1013.1
20260502030128 65 142 0.0 0.0 0.00 0.00 0.00 66 1013.0
20260502025629 66 137 0.0 0.0 0.00 0.00 0.00 66 1012.9
20260502025348 66 181 0.0 0.0 0.00 0.00 0.00 64 1012.9
20260502024626 67 181 0.0 0.0 0.00 0.00 0.00 64 1012.9
20260502024351 67 177 0.0 0.0 0.00 0.00 0.00 63 1012.9
20260502023631 68 177 0.0 0.0 0.00 0.00 0.00 59 1012.8
20260502023130 68 182 0.0 0.0 0.00 0.00 0.00 57 1012.9
20260502022618 68 132 0.0 5.0 0.00 0.00 0.00 57 1012.9
20260502022116 68 217 0.0 5.0 0.00 0.00 0.00 56 1012.9
20260502021614 68 146 0.0 1.0 0.00 0.00 0.00 56 1012.9
20260502021341 69 195 0.0 7.0 0.00 0.00 0.00 56 1012.7
20260502020609 69 115 0.0 7.0 0.00 0.00 0.00 57 1012.6
20260502020109 69 135 0.0 1.0 0.00 0.00 0.00 56 1012.6
20260502015608 69 141 0.0 1.0 0.00 0.00 0.00 57 1012.5
20260502015107 69 148 0.0 1.0 0.00 0.00 0.00 56 1012.6
20260502014607 69 177 0.0 0.0 0.00 0.00 0.00 56 1012.6
20260502014106 69 173 0.0 10.0 0.00 0.00 0.00 57 1012.6
20260502013836 70 153 0.0 10.0 0.00 0.00 0.00 55 1012.5
20260502013105 70 184 0.0 4.0 0.00 0.00 0.00 55 1012.5
20260502012610 70 161 0.0 1.0 0.00 0.00 0.00 55 1012.6
20260502012106 70 238 0.0 7.0 0.00 0.00 0.00 55 1012.6
20260502011559 70 126 0.0 7.0 0.00 0.00 0.00 55 1012.6
20260502011102 70 156 0.0 2.0 0.00 0.00 0.00 55 1012.7
20260502010557 70 153 0.0 9.0 0.00 0.00 0.00 55 1012.6
20260502010058 71 131 0.0 9.0 0.00 0.00 0.00 53 1012.5
20260502005558 71 148 0.0 9.0 0.00 0.00 0.00 54 1012.5
20260502005333 71 138 0.0 3.0 0.00 0.00 0.00 54 1012.5
20260502004552 71 163 0.0 6.0 0.00 0.00 0.00 53 1012.5
20260502004046 71 166 0.0 6.0 0.00 0.00 0.00 53 1012.4
20260502003540 72 144 0.0 1.0 0.00 0.00 0.00 53 1012.4
20260502003035 72 142 0.0 10.0 0.00 0.00 0.00 52 1012.3
20260502002528 72 150 0.0 10.0 0.00 0.00 0.00 52 1012.2
20260502002252 72 109 0.0 2.0 0.00 0.00 0.00 53 1012.3
20260502001516 72 176 0.0 3.0 0.00 0.00 0.00 52 1012.4
20260502001011 72 102 0.0 3.0 0.00 0.00 0.00 53 1012.3
20260502000505 73 155 0.0 1.0 0.00 0.00 0.00 50 1012.3
20260501235959 73 126 0.0 0.0 0.00 0.00 0.00 50 1012.3
20260501235453 73 156 0.0 9.0 0.00 0.00 0.00 50 1012.2
20260501234946 73 344 0.0 9.0 0.00 0.00 0.00 50 1012.3
20260501234712 74 138 0.0 2.0 0.00 0.00 0.00 51 1012.2
20260501233934 74 128 0.0 4.0 0.00 0.00 0.00 49 1012.2
20260501233429 74 136 0.0 4.0 0.00 0.00 0.00 49 1012.2
20260501232923 74 100 0.0 5.0 0.00 0.00 0.00 48 1012.3
20260501232416 75 127 0.0 5.0 0.00 0.00 0.00 48 1012.3
20260501231910 76 178 0.0 3.0 0.00 0.00 0.00 47 1012.3
20260501231410 76 329 0.0 4.0 0.00 0.00 0.00 47 1012.3
20260501231135 76 148 0.0 4.0 0.00 0.00 0.00 49 1012.4
20260501230408 76 151 0.0 0.0 0.00 0.00 0.00 48 1012.5
20260501225917 76 286 0.0 0.0 0.00 0.00 0.00 49 1012.6
20260501225411 76 123 0.0 6.0 0.00 0.00 0.00 47 1012.6
20260501224908 76 136 0.0 6.0 0.00 0.00 0.00 45 1012.7
20260501224407 76 181 0.0 5.0 0.00 0.00 0.00 46 1012.7
20260501223908 76 160 0.0 9.0 0.00 0.00 0.00 45 1012.7
20260501223407 76 140 0.0 9.0 0.00 0.00 0.00 44 1012.7
20260501222907 76 227 0.0 5.0 0.00 0.00 0.00 50 1012.7
20260501222407 76 136 0.0 5.0 0.00 0.00 0.00 47 1012.7
20260501221907 76 101 0.0 7.0 0.00 0.00 0.00 43 1012.7
20260501221406 77 136 0.0 7.0 0.00 0.00 0.00 48 1012.7
20260501221131 77 142 0.0 1.0 0.00 0.00 0.00 44 1012.8
20260501220401 76 320 0.0 1.0 0.00 0.00 0.00 44 1012.9
20260501220131 76 106 0.0 8.0 0.00 0.00 0.00 44 1012.7
20260501215627 76 134 0.0 8.0 0.00 0.00 0.00 45 1012.8
20260501214906 76 127 0.0 1.0 0.00 0.00 0.00 48 1012.9
20260501214359 76 74 0.0 0.0 0.00 0.00 0.00 47 1012.9
20260501213849 76 154 0.0 0.0 0.00 0.00 0.00 44 1012.9
20260501213345 76 123 0.0 6.0 0.00 0.00 0.00 46 1013.0
20260501212838 77 214 0.0 6.0 0.00 0.00 0.00 49 1013.0
20260501212551 76 275 0.0 3.0 0.00 0.00 0.00 45 1013.0
20260501211828 76 175 0.0 3.0 0.00 0.00 0.00 44 1013.0
20260501211322 76 298 0.0 1.0 0.00 0.00 0.00 43 1013.2
20260501210815 76 108 0.0 1.0 0.00 0.00 0.00 49 1013.1
20260501210308 76 205 0.0 2.0 0.00 0.00 0.00 44 1013.1
20260501205804 76 187 0.0 2.0 0.00 0.00 0.00 44 1013.1
20260501205523 76 305 0.0 2.0 0.00 0.00 0.00 44 1013.1
20260501204753 76 310 0.0 2.0 0.00 0.00 0.00 46 1013.1
20260501204510 76 269 0.0 2.0 0.00 0.00 0.00 47 1013.1
20260501203753 76 276 0.0 2.0 0.00 0.00 0.00 48 1013.2
20260501203254 75 277 0.0 0.0 0.00 0.00 0.00 46 1013.2
20260501202753 75 242 0.0 0.0 0.00 0.00 0.00 50 1013.3
20260501202249 74 304 0.0 1.0 0.00 0.00 0.00 45 1013.3
20260501201747 74 204 0.0 1.0 0.00 0.00 0.00 47 1013.4
20260501201250 74 62 0.0 1.0 0.00 0.00 0.00 47 1013.5
20260501200749 74 190 0.0 0.0 0.00 0.00 0.00 49 1013.5
20260501200250 74 291 0.0 2.0 0.00 0.00 0.00 49 1013.5
20260501195747 74 299 0.0 2.0 0.00 0.00 0.00 48 1013.5
20260501195246 74 305 0.0 0.0 0.00 0.00 0.00 50 1013.6
20260501194744 74 230 0.0 0.0 0.00 0.00 0.00 51 1013.6
20260501194244 74 317 0.0 0.0 0.00 0.00 0.00 51 1013.6
20260501193742 74 349 0.0 0.0 0.00 0.00 0.00 46 1013.6
20260501193243 75 309 0.0 0.0 0.00 0.00 0.00 48 1013.6
20260501192740 75 298 0.0 0.0 0.00 0.00 0.00 45 1013.6
20260501192241 74 9 0.0 4.0 0.00 0.00 0.00 46 1013.7
20260501191740 75 294 0.0 4.0 0.00 0.00 0.00 46 1013.7
20260501191239 74 282 0.0 0.0 0.00 0.00 0.00 49 1013.8
20260501190734 74 281 0.0 0.0 0.00 0.00 0.00 44 1014.0
20260501190227 74 313 0.0 0.0 0.00 0.00 0.00 43 1014.0
20260501185721 74 302 0.0 0.0 0.00 0.00 0.00 44 1014.1
20260501185217 74 322 0.0 0.0 0.00 0.00 0.00 46 1014.2
20260501184709 74 304 0.0 0.0 0.00 0.00 0.00 46 1014.2
20260501184203 73 310 0.0 0.0 0.00 0.00 0.00 46 1014.3
20260501183658 73 318 0.0 0.0 0.00 0.00 0.00 44 1014.4
20260501183151 73 286 0.0 0.0 0.00 0.00 0.00 47 1014.5
20260501182645 73 232 0.0 0.0 0.00 0.00 0.00 48 1014.5
20260501182140 72 308 0.0 0.0 0.00 0.00 0.00 50 1014.5
20260501181633 72 309 0.0 0.0 0.00 0.00 0.00 49 1014.5
20260501181128 71 300 0.0 0.0 0.00 0.00 0.00 46 1014.6
20260501180621 71 298 0.0 0.0 0.00 0.00 0.00 52 1014.6
20260501180118 70 298 0.0 0.0 0.00 0.00 0.00 49 1014.7
20260501175609 70 298 0.0 0.0 0.00 0.00 0.00 52 1014.7
20260501175103 69 303 0.0 0.0 0.00 0.00 0.00 49 1014.8
20260501174557 69 297 0.0 0.0 0.00 0.00 0.00 52 1014.8
20260501174053 68 292 0.0 1.0 0.00 0.00 0.00 55 1015.0
20260501173545 67 311 0.0 1.0 0.00 0.00 0.00 51 1014.9
20260501173040 67 350 0.0 1.0 0.00 0.00 0.00 56 1015.0
20260501172807 66 321 0.0 1.0 0.00 0.00 0.00 54 1015.1
20260501172029 65 320 0.0 1.0 0.00 0.00 0.00 59 1015.1
20260501171521 65 321 0.0 1.0 0.00 0.00 0.00 61 1015.0
20260501171016 64 329 0.0 0.0 0.00 0.00 0.00 62 1015.1
20260501170509 62 5 0.0 0.0 0.00 0.00 0.00 64 1015.1
20260501170005 61 26 0.0 0.0 0.00 0.00 0.00 68 1015.1
20260501165837 60 33 0.0 0.0 0.00 0.00 0.00 66 1015.2
20260501164951 59 24 0.0 0.0 0.00 0.00 0.00 69 1015.3
20260501164445 58 348 0.0 0.0 0.00 0.00 0.00 71 1015.4
20260501163941 57 348 0.0 0.0 0.00 0.00 0.00 79 1015.4
20260501163700 57 348 0.0 0.0 0.00 0.00 0.00 83 1015.5